Weather History for Marion, OH

Change the Weather History Date:

Monday, November 18, 2013

  Actual Average (KDLZ) Record (KDLZ)
Temperature  
Mean Temperature 40 °F -  
Max Temperature 46 °F 50 °F 73 °F (1954)
Min Temperature 35 °F 31 °F 9 °F (1959)
Degree Days  
Heating Degree Days 24    
Moisture  
Dew Point 33 °F    
Average Humidity 71    
Maximum Humidity 83    
Minimum Humidity 60    
Precipitation  
Precipitation 0.00 in - - ()
Sea Level Pressure  
Sea Level Pressure 29.93 in    
Wind  
Wind Speed 15 mph (West)    
Max Wind Speed 21 mph    
Max Gust Speed 32 mph    
Visibility 10 miles    
Events      
Averages and records for this station are not official NWS values.
T = Trace of Precipitation, MM = Missing Value Source: NWS Daily Summary

Daily Weather History Graph

Daily Weather History Graph

Search for Another Location

Airport:

Trip Planner

Search our weather history database for the weather conditions in past years. The results will help you decide how hot, cold, wet, or windy it might be!

Date:

Astronomy

Nov. 18, 2013 Rise Set
Actual Time 7:22 AM EST 5:11 PM EST
Civil Twilight 6:53 AM EST 5:41 PM EST
Nautical Twilight 6:19 AM EST 6:14 PM EST
Astronomical Twilight 5:47 AM EST 6:47 PM EST
Moon 6:13 PM EST (11/18) 8:10 AM EST (11/18)
Length of Visible Light 10h 48m
Length of Day
9h 49m
Full, 99% of the Moon is Illuminated
Nov 18
Full
Nov 25
Last Quarter
Dec 2
New
Dec 9
First Quarter
Dec 17
Full

Hourly Weather History & Observations

Time (EST) Temp. Windchill Dew Point Humidity Pressure Visibility Wind Dir Wind Speed Gust Speed Precip Events Conditions
12:53 AM 46.0 °F 39.0 °F 39.0 °F 76% 29.72 in 10.0 mi West 17.3 mph 26.5 mph N/A   Partly Cloudy
1:46 AM 46.4 °F 39.8 °F 39.2 °F 76% 29.74 in 10.0 mi West 16.1 mph 24.2 mph N/A   Mostly Cloudy
1:53 AM 46.0 °F 39.6 °F 39.0 °F 76% 29.75 in 10.0 mi West 15.0 mph 23.0 mph N/A   Mostly Cloudy
2:53 AM 46.0 °F 40.6 °F 39.0 °F 76% 29.76 in 10.0 mi West 11.5 mph - N/A   Mostly Cloudy
3:53 AM 44.1 °F 38.6 °F 37.9 °F 79% 29.78 in 10.0 mi West 10.4 mph 23.0 mph N/A   Mostly Cloudy
4:15 AM 42.8 °F 35.4 °F 37.4 °F 81% 29.78 in 10.0 mi West 15.0 mph 24.2 mph N/A   Scattered Clouds
4:53 AM 43.0 °F 35.7 °F 37.0 °F 80% 29.81 in 10.0 mi WSW 15.0 mph 20.7 mph N/A   Clear
5:53 AM 42.1 °F 35.2 °F 36.0 °F 79% 29.83 in 10.0 mi West 12.7 mph - N/A   Clear
6:53 AM 41.0 °F 32.8 °F 35.1 °F 79% 29.84 in 10.0 mi West 16.1 mph 21.9 mph N/A   Clear
7:53 AM 39.9 °F 32.5 °F 35.1 °F 83% 29.84 in 9.0 mi West 12.7 mph - N/A   Clear
8:53 AM 43.0 °F 34.8 °F 36.0 °F 76% 29.85 in 9.0 mi West 18.4 mph 25.3 mph N/A   Clear
9:53 AM 45.0 °F 38.9 °F 37.0 °F 74% 29.87 in 10.0 mi West 12.7 mph 25.3 mph N/A   Partly Cloudy
10:09 AM 44.6 °F 37.2 °F 35.6 °F 71% 29.86 in 10.0 mi West 17.3 mph 25.3 mph N/A   Mostly Cloudy
10:53 AM 45.0 °F 36.9 °F 36.0 °F 71% 29.89 in 10.0 mi WSW 20.7 mph 27.6 mph N/A   Mostly Cloudy
11:24 AM 44.6 °F 36.6 °F 33.8 °F 66% 29.88 in 10.0 mi West 19.6 mph 28.8 mph N/A   Scattered Clouds
11:53 AM 46.0 °F 39.6 °F 33.1 °F 61% 29.90 in 10.0 mi West 15.0 mph 32.2 mph N/A   Mostly Cloudy
12:53 PM 45.0 °F 37.6 °F 33.1 °F 63% 29.91 in 10.0 mi West 17.3 mph 27.6 mph N/A   Mostly Cloudy
1:53 PM 44.1 °F 36.2 °F 32.0 °F 63% 29.94 in 10.0 mi West 18.4 mph 26.5 mph N/A   Mostly Cloudy
2:53 PM 44.1 °F 37.1 °F 30.9 °F 60% 29.96 in 10.0 mi WNW 15.0 mph 25.3 mph N/A   Mostly Cloudy
3:53 PM 43.0 °F 36.0 °F 32.0 °F 65% 29.99 in 10.0 mi NW 13.8 mph - N/A   Mostly Cloudy
4:53 PM 41.0 °F 33.9 °F 30.9 °F 67% 30.03 in 10.0 mi WNW 12.7 mph 21.9 mph N/A   Scattered Clouds
5:53 PM 39.0 °F 31.8 °F 30.0 °F 70% 30.06 in 10.0 mi WNW 11.5 mph - N/A   Mostly Cloudy
6:53 PM 37.9 °F 29.6 °F 28.9 °F 70% 30.09 in 10.0 mi WNW 13.8 mph - N/A   Mostly Cloudy
7:53 PM 36.0 °F 29.0 °F 28.0 °F 73% 30.11 in 10.0 mi WNW 9.2 mph - N/A   Scattered Clouds
8:53 PM 35.1 °F 27.9 °F 27.0 °F 72% 30.12 in 10.0 mi WNW 9.2 mph - N/A   Mostly Cloudy
9:53 PM 36.0 °F 28.5 °F 27.0 °F 70% 30.14 in 10.0 mi WNW 10.4 mph - N/A   Overcast
10:18 PM 35.6 °F 28.6 °F 26.6 °F 70% 30.12 in 10.0 mi WNW 9.2 mph - N/A   Overcast
10:48 PM 35.6 °F 25.9 °F 24.8 °F 65% 30.13 in 10.0 mi NNW 16.1 mph 21.9 mph N/A   Overcast
10:53 PM 36.0 °F 26.3 °F 25.0 °F 64% 30.16 in 10.0 mi NW 16.1 mph 21.9 mph N/A   Overcast
11:53 PM 35.1 °F 25.2 °F 23.0 °F 61% 30.17 in 10.0 mi NW 16.1 mph 23.0 mph N/A   Overcast